JBU969 KRIC-KMCO

Flight info

Callsign JBU969
Flight time 1h 48m
Altitude 36000
Route KALLI7 DRAIK GSO Q83 ROYCO Q85 LPERD GTOUT1
Aircraft A320/M-SDE3FGHIRWY/LB1

Departure

Time 2026-05-07 20:06
Airport Richmond International Airport (KRIC)

Arrival

Time 2026-05-07 21:55
Airport Orlando International Airport (KMCO)
Time Latitude Longitude Altitude Speed Heading
2026-05-07 19:47 37.50863 -77.33067 166 ft 0 kts 332°
2026-05-07 19:57 37.50862 -77.33067 166 ft 0 kts 332°
2026-05-07 19:57 37.50854 -77.33061 166 ft 2 kts 332°
2026-05-07 19:58 37.50841 -77.33052 166 ft 2 kts 332°
2026-05-07 19:58 37.50827 -77.33044 166 ft 2 kts 350°
2026-05-07 19:58 37.50812 -77.33044 166 ft 2 kts 11°
2026-05-07 19:58 37.50798 -77.33051 165 ft 2 kts 34°
2026-05-07 19:59 37.50787 -77.33063 165 ft 1 kts 55°
2026-05-07 19:59 37.50784 -77.33067 165 ft 0 kts 61°
2026-05-07 19:59 37.50786 -77.33061 165 ft 0 kts 96°
2026-05-07 19:59 37.50779 -77.33036 165 ft 2 kts 105°
2026-05-07 20:00 37.50777 -77.33027 165 ft 1 kts 104°
2026-05-07 20:00 37.50777 -77.33026 165 ft 0 kts 104°
2026-05-07 20:01 37.50775 -77.33015 165 ft 4 kts 104°
2026-05-07 20:02 37.50770 -77.32950 165 ft 8 kts 69°
2026-05-07 20:02 37.50838 -77.32910 166 ft 16 kts 14°
2026-05-07 20:02 37.50979 -77.32866 166 ft 22 kts 13°
2026-05-07 20:02 37.51129 -77.32821 166 ft 21 kts 14°
2026-05-07 20:03 37.51269 -77.32778 166 ft 20 kts 12°
2026-05-07 20:03 37.51405 -77.32740 166 ft 18 kts 13°
2026-05-07 20:03 37.51510 -77.32708 166 ft 12 kts 13°
2026-05-07 20:03 37.51595 -77.32682 166 ft 12 kts 14°
2026-05-07 20:04 37.51639 -77.32614 166 ft 6 kts 89°
2026-05-07 20:04 37.51639 -77.32562 166 ft 6 kts 89°
2026-05-07 20:04 37.51638 -77.32499 166 ft 7 kts 92°
2026-05-07 20:04 37.51633 -77.32426 167 ft 8 kts 95°
2026-05-07 20:05 37.51635 -77.32359 168 ft 7 kts 90°
2026-05-07 20:05 37.51606 -77.32311 168 ft 5 kts 148°
2026-05-07 20:05 37.51496 -77.32224 166 ft 44 kts 147°
2026-05-07 20:05 37.51046 -77.31864 164 ft 107 kts 147°
2026-05-07 20:06 37.50249 -77.31226 164 ft 160 kts 147°
2026-05-07 20:06 37.49271 -77.30458 586 ft 168 kts 146°
2026-05-07 20:06 37.48231 -77.29818 1208 ft 169 kts 165°
2026-05-07 20:06 37.47099 -77.29973 1826 ft 171 kts 211°
2026-05-07 20:07 37.46422 -77.31163 2162 ft 175 kts 266°
2026-05-07 20:07 37.46704 -77.32616 2456 ft 177 kts 308°
2026-05-07 20:07 37.47318 -77.34032 2750 ft 196 kts 285°
2026-05-07 20:07 37.47353 -77.35827 3068 ft 215 kts 270°
2026-05-07 20:08 37.47236 -77.37785 3384 ft 234 kts 269°
2026-05-07 20:08 37.47155 -77.39912 3721 ft 254 kts 271°
2026-05-07 20:08 37.47124 -77.42189 4286 ft 265 kts 271°
2026-05-07 20:08 37.47123 -77.44485 5182 ft 263 kts 272°
2026-05-07 20:09 37.47136 -77.46770 6149 ft 260 kts 271°
2026-05-07 20:09 37.47155 -77.48976 7079 ft 256 kts 271°
2026-05-07 20:09 37.47177 -77.51223 7939 ft 256 kts 270°
2026-05-07 20:10 37.47177 -77.55673 9573 ft 256 kts 266°
2026-05-07 20:10 37.47035 -77.57912 10339 ft 256 kts 264°
2026-05-07 20:10 37.46866 -77.60203 10755 ft 269 kts 264°
2026-05-07 20:10 37.46661 -77.62599 11046 ft 285 kts 261°
2026-05-07 20:11 37.46291 -77.65123 11335 ft 301 kts 256°
2026-05-07 20:11 37.45717 -77.67714 11816 ft 309 kts 252°
2026-05-07 20:11 37.45051 -77.70264 12512 ft 310 kts 252°
2026-05-07 20:11 37.44371 -77.72834 13195 ft 310 kts 252°
2026-05-07 20:12 37.43687 -77.75410 13833 ft 311 kts 252°
2026-05-07 20:12 37.43001 -77.77991 14459 ft 312 kts 252°
2026-05-07 20:12 37.42311 -77.80587 15079 ft 313 kts 252°
2026-05-07 20:12 37.41616 -77.83190 15655 ft 314 kts 252°
2026-05-07 20:13 37.40918 -77.85811 16213 ft 316 kts 251°
2026-05-07 20:13 37.40221 -77.88422 16764 ft 317 kts 251°
2026-05-07 20:13 37.39518 -77.91051 17307 ft 319 kts 251°
2026-05-07 20:13 37.38811 -77.93687 17802 ft 321 kts 251°
2026-05-07 20:14 37.38090 -77.96367 18299 ft 323 kts 251°
2026-05-07 20:14 37.37378 -77.99019 18820 ft 323 kts 251°
2026-05-07 20:14 37.36659 -78.01693 19343 ft 324 kts 251°
2026-05-07 20:14 37.35936 -78.04376 19873 ft 323 kts 251°
2026-05-07 20:15 37.35212 -78.07055 20403 ft 322 kts 252°
2026-05-07 20:15 37.34500 -78.09701 20901 ft 322 kts 251°
2026-05-07 20:15 37.33781 -78.12360 21377 ft 322 kts 251°
2026-05-07 20:15 37.33056 -78.15041 21840 ft 322 kts 252°
2026-05-07 20:16 37.32342 -78.17688 22327 ft 321 kts 251°
2026-05-07 20:16 37.31626 -78.20340 22789 ft 320 kts 251°
2026-05-07 20:16 37.30909 -78.22979 23207 ft 320 kts 251°
2026-05-07 20:16 37.30194 -78.25607 23624 ft 320 kts 252°
2026-05-07 20:17 37.29469 -78.28276 23862 ft 325 kts 252°
2026-05-07 20:17 37.28726 -78.31014 24054 ft 330 kts 252°
2026-05-07 20:17 37.28046 -78.33746 24377 ft 332 kts 254°
2026-05-07 20:17 37.27420 -78.36552 24762 ft 331 kts 254°
2026-05-07 20:18 37.26788 -78.39359 25122 ft 332 kts 255°
2026-05-07 20:18 37.26160 -78.42133 25470 ft 333 kts 255°
2026-05-07 20:18 37.25527 -78.44952 25800 ft 333 kts 255°
2026-05-07 20:18 37.24897 -78.47741 26088 ft 335 kts 255°
2026-05-07 20:19 37.24264 -78.50555 26417 ft 335 kts 255°
2026-05-07 20:19 37.23629 -78.53371 26736 ft 336 kts 255°
2026-05-07 20:19 37.22989 -78.56203 27004 ft 337 kts 255°
2026-05-07 20:19 37.22343 -78.59050 27317 ft 337 kts 255°
2026-05-07 20:20 37.21703 -78.61887 27601 ft 337 kts 255°
2026-05-07 20:20 37.21066 -78.64692 27844 ft 338 kts 255°
2026-05-07 20:20 37.20416 -78.67557 28266 ft 335 kts 255°
2026-05-07 20:20 37.19787 -78.70327 28711 ft 332 kts 255°
2026-05-07 20:21 37.19156 -78.73107 29123 ft 329 kts 255°
2026-05-07 20:21 37.18530 -78.75857 29523 ft 327 kts 255°
2026-05-07 20:21 37.17907 -78.78598 29915 ft 325 kts 255°
2026-05-07 20:21 37.17284 -78.81330 30266 ft 324 kts 256°
2026-05-07 20:22 37.16668 -78.84034 30603 ft 323 kts 255°
2026-05-07 20:22 37.16046 -78.86733 30954 ft 321 kts 254°
2026-05-07 20:22 37.15298 -78.89365 31266 ft 321 kts 251°
2026-05-07 20:22 37.14387 -78.91924 31557 ft 323 kts 248°
2026-05-07 20:23 37.13312 -78.94422 31870 ft 324 kts 245°
2026-05-07 20:23 37.12101 -78.96800 32187 ft 325 kts 242°
2026-05-07 20:23 37.10739 -78.99081 32494 ft 327 kts 239°
2026-05-07 20:23 37.09248 -79.01212 32760 ft 330 kts 236°
2026-05-07 20:24 37.07604 -79.03233 33049 ft 333 kts 232°
2026-05-07 20:24 37.05805 -79.05122 33355 ft 337 kts 229°
2026-05-07 20:24 37.03931 -79.06901 33662 ft 336 kts 229°
2026-05-07 20:24 37.02072 -79.08662 33935 ft 336 kts 229°
2026-05-07 20:25 37.00217 -79.10408 34159 ft 336 kts 229°
2026-05-07 20:25 36.98343 -79.12166 34363 ft 337 kts 229°
2026-05-07 20:25 36.96439 -79.13942 34548 ft 338 kts 229°
2026-05-07 20:25 36.94554 -79.15700 34706 ft 339 kts 229°
2026-05-07 20:26 36.92661 -79.17454 34846 ft 341 kts 228°
2026-05-07 20:26 36.90749 -79.19229 35009 ft 342 kts 229°
2026-05-07 20:26 36.88826 -79.21006 35200 ft 342 kts 229°
2026-05-07 20:26 36.86900 -79.22783 35357 ft 343 kts 228°
2026-05-07 20:27 36.84981 -79.24556 35489 ft 344 kts 228°
2026-05-07 20:27 36.83051 -79.26336 35659 ft 344 kts 228°
2026-05-07 20:27 36.81118 -79.28115 35809 ft 345 kts 228°
2026-05-07 20:28 36.77262 -79.31660 35877 ft 348 kts 229°
2026-05-07 20:28 36.73344 -79.35255 35885 ft 349 kts 229°
2026-05-07 20:29 36.69434 -79.38842 35893 ft 348 kts 228°
2026-05-07 20:29 36.65524 -79.42419 35893 ft 350 kts 229°
2026-05-07 20:30 36.61614 -79.45999 35896 ft 350 kts 229°
2026-05-07 20:30 36.57684 -79.49586 35895 ft 351 kts 229°
2026-05-07 20:31 36.53750 -79.53176 35892 ft 351 kts 229°
2026-05-07 20:31 36.49822 -79.56756 35891 ft 351 kts 229°
2026-05-07 20:32 36.45865 -79.60355 35893 ft 351 kts 229°
2026-05-07 20:32 36.41914 -79.63945 35894 ft 351 kts 229°
2026-05-07 20:33 36.37963 -79.67529 35898 ft 353 kts 228°
2026-05-07 20:33 36.34012 -79.71110 35898 ft 353 kts 228°
2026-05-07 20:34 36.30020 -79.74725 35899 ft 353 kts 228°
2026-05-07 20:34 36.26051 -79.78310 35899 ft 354 kts 228°
2026-05-07 20:35 36.22082 -79.81895 35899 ft 353 kts 228°
2026-05-07 20:35 36.18101 -79.85485 35898 ft 355 kts 228°
2026-05-07 20:36 36.14103 -79.89085 35899 ft 354 kts 228°
2026-05-07 20:36 36.10110 -79.92673 35900 ft 355 kts 227°
2026-05-07 20:37 36.05923 -79.96043 35900 ft 363 kts 224°
2026-05-07 20:37 36.01383 -79.99026 35899 ft 370 kts 219°
2026-05-07 20:38 35.96587 -80.01544 35901 ft 374 kts 217°
2026-05-07 20:38 35.91745 -80.03968 35891 ft 375 kts 217°
2026-05-07 20:39 35.86919 -80.06367 35886 ft 374 kts 217°
2026-05-07 20:39 35.82063 -80.08770 35871 ft 375 kts 217°
2026-05-07 20:40 35.77174 -80.11183 35869 ft 376 kts 217°
2026-05-07 20:40 35.72330 -80.13567 35866 ft 375 kts 216°
2026-05-07 20:41 35.67469 -80.15953 35866 ft 374 kts 217°
2026-05-07 20:41 35.62616 -80.18339 35859 ft 375 kts 216°
2026-05-07 20:42 35.57716 -80.20739 35858 ft 376 kts 216°
2026-05-07 20:42 35.52863 -80.23113 35859 ft 377 kts 216°
2026-05-07 20:43 35.47974 -80.25500 35857 ft 376 kts 216°
2026-05-07 20:43 35.43061 -80.27838 35851 ft 381 kts 213°
2026-05-07 20:44 35.37912 -80.29723 35859 ft 390 kts 209°
2026-05-07 20:44 35.32522 -80.31036 35852 ft 398 kts 204°
2026-05-07 20:45 35.27026 -80.32089 35845 ft 399 kts 204°
2026-05-07 20:45 35.21545 -80.33135 35845 ft 398 kts 204°
2026-05-07 20:46 35.16092 -80.34178 35844 ft 398 kts 204°
2026-05-07 20:46 35.10569 -80.35225 35838 ft 399 kts 204°
2026-05-07 20:47 35.05077 -80.36262 35835 ft 400 kts 204°
2026-05-07 20:47 34.99513 -80.37315 35828 ft 400 kts 204°
2026-05-07 20:48 34.94027 -80.38345 35826 ft 400 kts 204°
2026-05-07 20:48 34.88486 -80.39389 35824 ft 401 kts 204°
2026-05-07 20:49 34.82984 -80.40422 35823 ft 399 kts 204°
2026-05-07 20:49 34.77452 -80.41460 35825 ft 401 kts 204°
2026-05-07 20:50 34.71927 -80.42496 35825 ft 402 kts 204°
2026-05-07 20:50 34.66407 -80.43527 35826 ft 401 kts 204°
2026-05-07 20:51 34.60873 -80.44561 35827 ft 402 kts 204°
2026-05-07 20:51 34.55349 -80.45594 35828 ft 403 kts 203°
2026-05-07 20:52 34.49769 -80.46632 35827 ft 404 kts 203°
2026-05-07 20:52 34.44214 -80.47664 35830 ft 403 kts 204°
2026-05-07 20:53 34.38652 -80.48697 35832 ft 403 kts 203°
2026-05-07 20:53 34.33105 -80.49726 35836 ft 404 kts 203°
2026-05-07 20:54 34.27559 -80.50764 35835 ft 402 kts 204°
2026-05-07 20:54 34.22133 -80.52205 35835 ft 395 kts 207°
2026-05-07 20:55 34.16786 -80.53803 35833 ft 394 kts 207°
2026-05-07 20:55 34.11438 -80.55399 35831 ft 396 kts 208°
2026-05-07 20:56 34.06050 -80.57012 35831 ft 396 kts 207°
2026-05-07 20:56 34.00680 -80.58614 35832 ft 397 kts 207°
2026-05-07 20:57 33.95290 -80.60224 35830 ft 398 kts 207°
2026-05-07 20:57 33.89917 -80.61824 35832 ft 397 kts 207°
2026-05-07 20:58 33.84514 -80.63433 35839 ft 398 kts 207°
2026-05-07 20:58 33.79113 -80.65040 35840 ft 399 kts 206°
2026-05-07 20:59 33.73751 -80.66630 35847 ft 399 kts 206°
2026-05-07 20:59 33.68309 -80.68242 35850 ft 401 kts 206°
2026-05-07 21:00 33.62917 -80.69840 35845 ft 402 kts 206°
2026-05-07 21:00 33.57447 -80.71455 35852 ft 404 kts 206°
2026-05-07 21:01 33.51980 -80.73071 35855 ft 404 kts 206°
2026-05-07 21:01 33.46527 -80.74678 35861 ft 404 kts 206°
2026-05-07 21:02 33.41077 -80.76282 35863 ft 404 kts 206°
2026-05-07 21:02 33.35580 -80.77898 35867 ft 406 kts 206°
2026-05-07 21:03 33.30069 -80.79517 35870 ft 407 kts 205°
2026-05-07 21:03 33.24530 -80.81135 35869 ft 407 kts 205°
2026-05-07 21:04 33.19012 -80.82750 35873 ft 409 kts 205°
2026-05-07 21:04 33.13441 -80.84378 35880 ft 409 kts 205°
2026-05-07 21:05 33.07927 -80.85984 35880 ft 409 kts 205°
2026-05-07 21:05 33.02377 -80.87604 35885 ft 411 kts 205°
2026-05-07 21:06 32.96797 -80.89229 35894 ft 411 kts 205°
2026-05-07 21:06 32.91180 -80.90860 35895 ft 414 kts 205°
2026-05-07 21:07 32.85589 -80.92485 35893 ft 416 kts 204°
2026-05-07 21:07 32.79939 -80.94119 35883 ft 417 kts 204°
2026-05-07 21:08 32.74330 -80.95744 35882 ft 416 kts 204°
2026-05-07 21:08 32.68703 -80.97369 35886 ft 416 kts 204°
2026-05-07 21:09 32.63044 -80.99000 35884 ft 419 kts 204°
2026-05-07 21:09 32.57326 -81.00613 35889 ft 424 kts 202°
2026-05-07 21:10 32.51407 -81.01696 35892 ft 431 kts 195°
2026-05-07 21:10 32.45365 -81.02052 35898 ft 439 kts 191°
2026-05-07 21:11 32.39187 -81.02158 35901 ft 439 kts 191°
2026-05-07 21:11 32.30008 -81.02319 35908 ft 439 kts 190°
2026-05-07 21:12 32.23889 -81.02430 35910 ft 439 kts 190°
2026-05-07 21:12 32.17735 -81.02544 35912 ft 442 kts 190°
2026-05-07 21:13 32.11540 -81.02652 35914 ft 443 kts 189°
2026-05-07 21:13 32.05378 -81.02754 35913 ft 442 kts 189°
2026-05-07 21:14 31.99232 -81.02865 35912 ft 442 kts 189°
2026-05-07 21:14 31.93067 -81.03030 35908 ft 442 kts 190°
2026-05-07 21:15 31.86901 -81.03207 35907 ft 443 kts 190°
2026-05-07 21:15 31.80739 -81.03377 35902 ft 444 kts 190°
2026-05-07 21:16 31.74526 -81.03545 35900 ft 444 kts 189°
2026-05-07 21:16 31.68316 -81.03715 35890 ft 445 kts 191°
2026-05-07 21:17 31.62236 -81.04443 35892 ft 436 kts 198°
2026-05-07 21:17 31.56358 -81.06158 35891 ft 428 kts 206°
2026-05-07 21:18 31.50899 -81.08740 35894 ft 420 kts 214°
2026-05-07 21:18 31.45675 -81.11906 35895 ft 420 kts 215°
2026-05-07 21:19 31.40470 -81.15093 35897 ft 420 kts 216°
2026-05-07 21:19 31.35271 -81.18238 35899 ft 421 kts 215°
2026-05-07 21:20 31.30025 -81.21349 35895 ft 421 kts 214°
2026-05-07 21:20 31.24732 -81.24350 35906 ft 424 kts 211°
2026-05-07 21:21 31.19081 -81.26612 35901 ft 434 kts 204°
2026-05-07 21:21 31.13008 -81.27952 35907 ft 446 kts 195°
2026-05-07 21:22 31.06747 -81.28271 35908 ft 453 kts 189°
2026-05-07 21:22 31.00396 -81.28248 35907 ft 455 kts 188°
2026-05-07 21:23 30.94053 -81.28223 35907 ft 456 kts 188°
2026-05-07 21:23 30.87631 -81.28204 35909 ft 455 kts 188°
2026-05-07 21:24 30.81294 -81.28187 35909 ft 454 kts 188°
2026-05-07 21:24 30.75004 -81.28172 35910 ft 455 kts 188°
2026-05-07 21:25 30.71792 -81.28165 35721 ft 456 kts 188°
2026-05-07 21:25 30.68662 -81.28155 35364 ft 453 kts 189°
2026-05-07 21:25 30.65497 -81.28142 34842 ft 449 kts 189°
2026-05-07 21:25 30.62362 -81.28131 34214 ft 446 kts 189°
2026-05-07 21:26 30.59249 -81.28047 33537 ft 449 kts 186°
2026-05-07 21:26 30.56122 -81.27824 33335 ft 450 kts 186°
2026-05-07 21:26 30.53008 -81.27593 33152 ft 451 kts 186°
2026-05-07 21:26 30.49886 -81.27361 32885 ft 453 kts 186°
2026-05-07 21:27 30.46721 -81.27126 32624 ft 454 kts 185°
2026-05-07 21:27 30.43564 -81.26889 32367 ft 454 kts 185°
2026-05-07 21:27 30.40385 -81.26651 32108 ft 454 kts 185°
2026-05-07 21:27 30.37238 -81.26414 31851 ft 455 kts 185°
2026-05-07 21:28 30.34077 -81.26177 31593 ft 457 kts 185°
2026-05-07 21:28 30.30856 -81.25936 31333 ft 458 kts 185°
2026-05-07 21:28 30.27689 -81.25699 31078 ft 459 kts 185°
2026-05-07 21:28 30.24475 -81.25458 30821 ft 458 kts 185°
2026-05-07 21:29 30.21270 -81.25217 30566 ft 459 kts 185°
2026-05-07 21:29 30.18051 -81.24975 30304 ft 459 kts 185°
2026-05-07 21:29 30.14817 -81.24734 30049 ft 461 kts 185°
2026-05-07 21:29 30.11660 -81.24497 29795 ft 461 kts 185°
2026-05-07 21:30 30.08435 -81.24255 29538 ft 462 kts 185°
2026-05-07 21:30 30.05218 -81.24015 29279 ft 462 kts 185°
2026-05-07 21:30 30.01984 -81.23776 29023 ft 464 kts 185°
2026-05-07 21:30 29.98786 -81.23537 28773 ft 464 kts 185°
2026-05-07 21:31 29.95541 -81.23293 28521 ft 465 kts 185°
2026-05-07 21:31 29.92304 -81.23053 28278 ft 466 kts 184°
2026-05-07 21:31 29.89041 -81.22810 28033 ft 467 kts 185°
2026-05-07 21:31 29.85838 -81.22570 27790 ft 466 kts 184°
2026-05-07 21:32 29.82573 -81.22327 27536 ft 467 kts 184°
2026-05-07 21:32 29.79319 -81.22083 27074 ft 464 kts 184°
2026-05-07 21:32 29.76134 -81.21843 26652 ft 460 kts 184°
2026-05-07 21:32 29.72961 -81.21606 26134 ft 457 kts 184°
2026-05-07 21:33 29.69804 -81.21367 25569 ft 453 kts 184°
2026-05-07 21:33 29.66664 -81.21106 24993 ft 449 kts 183°
2026-05-07 21:33 29.63577 -81.20839 24425 ft 445 kts 183°
2026-05-07 21:33 29.60480 -81.20570 23854 ft 441 kts 183°
2026-05-07 21:34 29.57443 -81.20306 23268 ft 438 kts 183°
2026-05-07 21:34 29.54388 -81.20044 22679 ft 435 kts 183°
2026-05-07 21:34 29.51386 -81.19788 22113 ft 432 kts 182°
2026-05-07 21:34 29.48434 -81.19534 21552 ft 429 kts 182°
2026-05-07 21:35 29.45429 -81.19276 20969 ft 427 kts 182°
2026-05-07 21:35 29.42480 -81.19023 20392 ft 425 kts 182°
2026-05-07 21:35 29.39557 -81.18774 19814 ft 423 kts 182°
2026-05-07 21:35 29.36633 -81.18523 19233 ft 421 kts 182°
2026-05-07 21:36 29.33685 -81.18271 18648 ft 419 kts 182°
2026-05-07 21:36 29.30778 -81.18023 18067 ft 417 kts 182°
2026-05-07 21:36 29.27900 -81.17776 17502 ft 414 kts 181°
2026-05-07 21:36 29.25035 -81.17522 16933 ft 412 kts 181°
2026-05-07 21:37 29.22185 -81.17270 16362 ft 409 kts 180°
2026-05-07 21:37 29.19350 -81.16824 15791 ft 411 kts 174°
2026-05-07 21:37 29.16604 -81.16016 15243 ft 412 kts 167°
2026-05-07 21:37 29.13901 -81.14905 14690 ft 410 kts 163°
2026-05-07 21:38 29.11255 -81.13737 14134 ft 408 kts 163°
2026-05-07 21:38 29.08592 -81.12554 13575 ft 405 kts 163°
2026-05-07 21:38 29.05974 -81.11443 13028 ft 400 kts 166°
2026-05-07 21:38 29.03339 -81.10431 12485 ft 396 kts 166°
2026-05-07 21:39 29.00753 -81.09451 12204 ft 386 kts 166°
2026-05-07 21:39 28.98221 -81.08568 11986 ft 372 kts 170°
2026-05-07 21:39 28.95762 -81.08001 11861 ft 355 kts 176°
2026-05-07 21:39 28.93350 -81.07671 11883 ft 342 kts 178°
2026-05-07 21:40 28.90969 -81.07395 11910 ft 341 kts 179°
2026-05-07 21:40 28.88634 -81.07349 11920 ft 336 kts 189°
2026-05-07 21:40 28.86330 -81.07845 11927 ft 332 kts 201°
2026-05-07 21:40 28.84156 -81.08701 11930 ft 330 kts 204°
2026-05-07 21:41 28.82003 -81.09615 11930 ft 330 kts 205°
2026-05-07 21:41 28.79863 -81.10529 11927 ft 330 kts 205°
2026-05-07 21:41 28.77709 -81.11438 11877 ft 331 kts 204°
2026-05-07 21:41 28.75521 -81.12354 11519 ft 329 kts 204°
2026-05-07 21:42 28.73398 -81.13236 11266 ft 322 kts 204°
2026-05-07 21:42 28.71310 -81.14089 11077 ft 313 kts 202°
2026-05-07 21:42 28.69229 -81.14771 10881 ft 307 kts 198°
2026-05-07 21:42 28.67140 -81.15328 10617 ft 303 kts 197°
2026-05-07 21:43 28.65101 -81.15859 10335 ft 299 kts 197°
2026-05-07 21:43 28.63060 -81.16388 9918 ft 300 kts 197°
2026-05-07 21:43 28.61027 -81.16914 9658 ft 295 kts 197°
2026-05-07 21:43 28.59023 -81.17434 9397 ft 291 kts 197°
2026-05-07 21:44 28.57055 -81.17944 9143 ft 287 kts 197°
2026-05-07 21:44 28.55099 -81.18422 8933 ft 282 kts 193°
2026-05-07 21:44 28.53151 -81.18650 8705 ft 279 kts 186°
2026-05-07 21:44 28.51221 -81.18691 8380 ft 275 kts 184°
2026-05-07 21:45 28.49323 -81.18701 8044 ft 270 kts 184°
2026-05-07 21:45 28.47470 -81.18709 7713 ft 266 kts 184°
2026-05-07 21:45 28.45616 -81.18720 7366 ft 262 kts 184°
2026-05-07 21:45 28.43805 -81.18733 6977 ft 260 kts 184°
2026-05-07 21:46 28.41964 -81.18749 6545 ft 261 kts 183°
2026-05-07 21:46 28.40150 -81.18763 6181 ft 259 kts 183°
2026-05-07 21:46 28.38370 -81.18776 5856 ft 256 kts 183°
2026-05-07 21:46 28.36598 -81.18788 5538 ft 253 kts 183°
2026-05-07 21:47 28.34840 -81.18800 5264 ft 249 kts 183°
2026-05-07 21:47 28.33131 -81.18810 5068 ft 243 kts 183°
2026-05-07 21:47 28.31472 -81.18823 4957 ft 234 kts 183°
2026-05-07 21:47 28.29863 -81.18816 4854 ft 228 kts 182°
2026-05-07 21:48 28.28277 -81.18787 4577 ft 229 kts 182°
2026-05-07 21:48 28.26659 -81.18754 4339 ft 230 kts 181°
2026-05-07 21:48 28.25072 -81.18721 4108 ft 230 kts 181°
2026-05-07 21:48 28.23458 -81.18687 3873 ft 229 kts 182°
2026-05-07 21:49 28.21890 -81.18834 3625 ft 225 kts 202°
2026-05-07 21:49 28.20638 -81.19807 3384 ft 218 kts 236°
2026-05-07 21:49 28.20106 -81.21357 3157 ft 215 kts 267°
2026-05-07 21:49 28.20380 -81.22994 2974 ft 212 kts 297°
2026-05-07 21:50 28.21346 -81.24213 2961 ft 210 kts 323°
2026-05-07 21:50 28.22601 -81.25098 2968 ft 210 kts 326°
2026-05-07 21:50 28.23840 -81.25951 2954 ft 210 kts 326°
2026-05-07 21:50 28.25089 -81.26812 2841 ft 209 kts 325°
2026-05-07 21:51 28.26318 -81.27654 2719 ft 205 kts 330°
2026-05-07 21:51 28.27682 -81.28082 2673 ft 197 kts 350°
2026-05-07 21:51 28.29042 -81.28148 2495 ft 195 kts 356°
2026-05-07 21:51 28.30409 -81.28132 2220 ft 195 kts 356°
2026-05-07 21:52 28.31748 -81.28123 1948 ft 186 kts 355°
2026-05-07 21:52 28.33023 -81.28130 1697 ft 177 kts 355°
2026-05-07 21:52 28.34232 -81.28143 1470 ft 169 kts 355°
2026-05-07 21:52 28.35367 -81.28156 1286 ft 158 kts 354°
2026-05-07 21:53 28.36431 -81.28166 1094 ft 145 kts 354°
2026-05-07 21:53 28.37421 -81.28177 914 ft 140 kts 354°
2026-05-07 21:53 28.38398 -81.28190 749 ft 139 kts 355°
2026-05-07 21:53 28.39366 -81.28200 581 ft 139 kts 355°
2026-05-07 21:54 28.40349 -81.28215 392 ft 141 kts 354°
2026-05-07 21:54 28.41333 -81.28227 224 ft 141 kts 355°
2026-05-07 21:54 28.42309 -81.28233 90 ft 137 kts 356°
2026-05-07 21:54 28.43124 -81.28248 87 ft 92 kts 360°
2026-05-07 21:55 28.43595 -81.28249 87 ft 42 kts 358°
2026-05-07 21:55 28.43806 -81.28278 87 ft 20 kts 334°
2026-05-07 21:55 28.43875 -81.28404 87 ft 19 kts 272°
2026-05-07 21:55 28.43874 -81.28549 87 ft 18 kts 269°
2026-05-07 21:56 28.43874 -81.28690 87 ft 17 kts 270°
2026-05-07 21:56 28.43873 -81.28825 87 ft 17 kts 269°
2026-05-07 21:56 28.43870 -81.28973 87 ft 21 kts 270°
2026-05-07 21:56 28.43869 -81.29155 87 ft 22 kts 270°
2026-05-07 21:57 28.43838 -81.29262 88 ft 13 kts 200°
2026-05-07 21:57 28.43742 -81.29264 88 ft 14 kts 179°
2026-05-07 21:57 28.43632 -81.29263 89 ft 17 kts 180°
2026-05-07 21:57 28.43556 -81.29300 90 ft 11 kts 257°
2026-05-07 21:58 28.43552 -81.29417 90 ft 16 kts 269°
2026-05-07 21:58 28.43550 -81.29546 90 ft 16 kts 269°
2026-05-07 21:58 28.43549 -81.29675 90 ft 16 kts 270°
2026-05-07 21:58 28.43561 -81.29789 90 ft 13 kts 310°
2026-05-07 21:59 28.43656 -81.29806 90 ft 15 kts 359°
2026-05-07 21:59 28.43773 -81.29829 90 ft 17 kts 334°
2026-05-07 21:59 28.43866 -81.29925 90 ft 19 kts 301°
2026-05-07 21:59 28.43900 -81.30070 90 ft 20 kts 272°
2026-05-07 22:00 28.43908 -81.30256 91 ft 25 kts 273°
2026-05-07 22:00 28.43917 -81.30455 90 ft 24 kts 272°
2026-05-07 22:00 28.43929 -81.30645 88 ft 24 kts 275°
2026-05-07 22:00 28.43940 -81.30830 87 ft 22 kts 274°
2026-05-07 22:01 28.43942 -81.31004 88 ft 21 kts 269°
2026-05-07 22:01 28.43937 -81.31169 89 ft 20 kts 267°
2026-05-07 22:01 28.43930 -81.31322 90 ft 18 kts 267°
2026-05-07 22:01 28.43924 -81.31469 91 ft 18 kts 269°
2026-05-07 22:02 28.43923 -81.31625 91 ft 14 kts 270°
2026-05-07 22:02 28.43879 -81.31689 91 ft 12 kts 181°
2026-05-07 22:02 28.43789 -81.31659 91 ft 15 kts 147°
2026-05-07 22:02 28.43689 -81.31621 90 ft 15 kts 187°
2026-05-07 22:03 28.43576 -81.31647 88 ft 17 kts 191°
2026-05-07 22:03 28.43457 -81.31674 88 ft 17 kts 191°
2026-05-07 22:03 28.43343 -81.31702 88 ft 14 kts 194°
2026-05-07 22:03 28.43279 -81.31655 88 ft 12 kts 102°
2026-05-07 22:04 28.43267 -81.31554 88 ft 13 kts 84°
2026-05-07 22:04 28.43313 -81.31458 88 ft 14 kts 57°
2026-05-07 22:04 28.43357 -81.31415 87 ft 8 kts 351°
2026-05-07 22:04 28.43392 -81.31441 88 ft 4 kts 319°
2026-05-07 22:05 28.43401 -81.31450 88 ft 0 kts 319°